Location: ??
(34.7707°N, 135.6540°E)
Time: 01:16:04
(UTC+00:00)

Okean 2 Rocket - Pass Details

Date: 09 April 2020
Orbit: 617 x 641 km, 82.5° (Epoch: 24 May)

Event Time Altitude Azimuth Distance (km) Brightness Sun altitude
Rises 18:48:05 0° 346° (NNW) 2,946 6.7 -21.1°
Reaches altitude 10° 18:50:23 10° 340° (NNW) 2,035 5.8 -20.7°
Maximum altitude 18:54:42 46° 268° (W) 857 3.3 -19.9°
Enters shadow 18:54:54 46° 259° (W) 861 3.3 -19.9°
